OK2MD-6 Weather Reports


time (UTC)temp
F
wind
direction
speed
knots
gust
knots
rain 1hr
in
rain 24hr
in
rain mn
in
humidity
%
barometer
mb
20260507214025 59 317 2.6 9.6 0.00 0.00 0.00 65 1014.6
20260507212003 59 291 1.7 7.0 0.00 0.00 0.00 66 1014.1
20260507210004 58 152 0.0 2.6 0.00 0.00 0.00 73 1013.9
20260507204005 58 152 0.0 0.9 0.00 0.00 0.00 77 1013.8
20260507202005 58 0 0.0 0.0 0.00 0.00 0.00 75 1013.6
20260507200004 58 0 0.0 0.0 0.00 0.00 0.00 75 1013.4
20260507194004 59 0 0.0 0.0 0.00 0.00 0.00 75 1013.3
20260507192024 58 0 0.0 0.0 0.00 0.00 0.00 73 1013.2
20260507190005 59 152 0.0 0.9 0.00 0.00 0.00 74 1013.0
20260507184004 60 152 0.0 4.3 0.00 0.00 0.00 70 1012.8
20260507182025 60 0 0.0 0.0 0.00 0.00 0.00 69 1012.4
20260507180004 60 152 0.0 0.9 0.00 0.00 0.00 67 1012.2
20260507174003 61 154 1.7 6.1 0.00 0.00 0.00 66 1012.0
20260507172004 61 189 2.6 11.3 0.00 0.00 0.00 65 1012.0
20260507170003 66 223 1.7 8.7 0.00 0.00 0.00 50 1011.8
20260507164004 67 319 0.9 4.3 0.00 0.00 0.00 50 1011.5
20260507162005 67 319 0.9 3.5 0.00 0.00 0.00 49 1011.3
20260507160003 68 319 0.9 4.3 0.00 0.00 0.00 49 1011.2
20260507154006 70 319 1.7 5.2 0.00 0.00 0.00 47 1011.3
20260507152003 70 285 2.6 7.8 0.00 0.00 0.00 43 1011.4
20260507150024 71 277 0.9 5.2 0.00 0.00 0.00 44 1011.1
20260507144005 70 279 0.9 3.5 0.00 0.00 0.00 45 1011.1
20260507142003 72 279 1.7 6.1 0.00 0.00 0.00 41 1011.1
20260507140006 72 292 0.9 7.0 0.00 0.00 0.00 43 1011.0
20260507134003 72 280 2.6 7.0 0.00 0.00 0.00 43 1011.3
20260507132005 72 258 2.6 8.7 0.00 0.00 0.00 44 1011.4
20260507130025 72 272 2.6 7.8 0.00 0.00 0.00 45 1011.4
20260507124004 72 222 2.6 6.1 0.00 0.00 0.00 47 1011.6
20260507122004 69 224 1.7 6.1 0.00 0.00 0.00 49 1011.5
20260507120004 68 231 0.9 5.2 0.00 0.00 0.00 50 1011.7
20260507114004 67 236 0.9 5.2 0.00 0.00 0.00 55 1011.9
20260507112005 67 243 1.7 7.8 0.00 0.00 0.00 54 1012.0
20260507110003 66 252 1.7 4.3 0.00 0.00 0.00 56 1012.1
20260507104024 66 260 1.7 7.8 0.00 0.00 0.00 58 1012.0
20260507102004 66 261 1.7 6.1 0.00 0.00 0.00 61 1012.4
20260507100004 66 290 1.7 6.1 0.00 0.00 0.00 62 1012.2
20260507094004 64 302 0.9 4.3 0.00 0.00 0.00 65 1012.1
20260507092024 63 303 1.7 6.1 0.00 0.00 0.00 65 1012.0
20260507090004 62 306 0.9 6.1 0.00 0.00 0.00 68 1011.9
20260507084003 62 305 2.6 6.1 0.00 0.00 0.00 69 1011.6
20260507082004 62 297 1.7 4.3 0.00 0.00 0.00 69 1011.4
20260507080004 62 297 1.7 6.1 0.00 0.00 0.00 70 1011.4
20260507074003 62 302 2.6 6.1 0.00 0.00 0.00 71 1011.3
20260507072004 60 320 3.5 8.7 0.00 0.00 0.00 73 1011.1
20260507070009 59 306 2.6 7.0 0.00 0.00 0.00 76 1011.0
20260507064005 59 308 1.7 6.1 0.00 0.00 0.00 77 1011.0
20260507062003 59 311 1.7 6.1 0.00 0.00 0.00 78 1010.7
20260507060004 58 311 2.6 4.3 0.00 0.00 0.00 80 1010.5
20260507054005 58 311 1.7 5.2 0.00 0.00 0.00 81 1010.3
20260507052004 57 311 1.7 3.5 0.00 0.00 0.00 83 1010.2
20260507050004 57 311 2.6 5.2 0.00 0.00 0.00 84 1009.8
20260507044003 56 311 1.7 4.3 0.00 0.00 0.00 87 1009.6
20260507042003 56 312 2.6 7.0 0.00 0.00 0.00 87 1009.4
20260507040004 56 309 2.6 6.1 0.00 0.00 0.00 87 1009.1
20260507034004 56 309 1.7 4.3 0.00 0.00 0.00 87 1008.7
20260507032024 56 312 1.7 6.1 0.00 0.00 0.00 86 1008.6
20260507030005 57 314 0.9 7.8 0.00 0.00 0.00 87 1008.5
20260507024003 57 315 0.9 2.6 0.00 0.00 0.00 86 1008.3
20260507022003 57 315 0.9 3.5 0.00 0.00 0.00 85 1008.2
20260507020004 58 304 3.5 7.8 0.00 0.00 0.00 84 1008.1
20260507014005 58 288 4.3 10.4 0.00 0.00 0.00 83 1007.9
20260507012003 58 302 4.3 9.6 0.00 0.00 0.00 82 1007.6
20260507010024 58 275 4.3 7.8 0.00 0.00 0.00 81 1007.2
20260507004003 58 267 1.7 5.2 0.00 0.00 0.00 81 1006.7
20260507002004 58 267 2.6 7.0 0.00 0.00 0.00 80 1006.9
20260507000005 59 265 2.6 6.1 0.00 0.00 0.00 80 1006.7
20260506234003 59 247 2.6 6.1 0.00 0.00 0.00 80 1006.6
20260506232025 59 197 0.9 2.6 0.00 0.00 0.00 78 1006.1
20260506230003 59 191 0.0 0.9 0.00 0.00 0.00 76 1005.9
20260506224024 60 189 0.9 5.2 0.00 0.00 0.00 74 1005.8
20260506222004 61 186 0.0 0.9 0.00 0.00 0.00 73 1005.7
20260506220005 61 182 0.9 3.5 0.00 0.00 0.00 72 1005.5